Regional Weather Roundup
Issued by NWS Charleston, SC

Current Version | Previous Version | Graphics & Text | Print | Product List | Glossary On
Versions: 1 2 3 4 5 6 7 8 9 10 11 12 13 14 15 16 17 18 19 20 21 22 23 24 25 26 27 28 29 30 31 32 33 34 35 36 37 38 39 40 41 42 43 44 45 46 47 48 49 50
000
ASUS42 KCHS 231327
RWRCHS

Regional Weather Roundup
National Weather Service Charleston SC
900 AM EDT MON APR 23 2018

NOTE: "fair" indicates few or no clouds below 12,000 feet with no
significant weather and/or obstructions to visibility.

Not all stations are quality controlled. Use data with caution,
especially dewpoint observations.

SCZ027-030-031-034>040-042>050-231400-
...Southeast South Carolina...

CITY           SKY/WX    TMP DP  RH WIND       PRES   REMARKS
N Charleston   RAIN      64  61  90 SE10G23   30.17R FOG
Waterfront Prk   N/A     65  62  90 E18       29.99S
Mount Pleasant HVY RAIN  63  61  94 SE5       30.19R
Johns Island   PTSUNNY   64  63  94 E16       30.15S FOG
Pinopolis        N/A    N/A N/A N/A E5G13     30.05
Moncks Corner  RAIN      61  59  94 S5        30.18R
Summerville    RAIN      61  61 100 E6        30.16S
Beaufort MCAS  LGT RAIN  66  65  96 E17G30    30.07F FOG
Beaufort Arpt  RAIN      63  63 100 E14G23    30.08F
Hilton Head Is RAIN      64  63  94 E12G20    30.08F
Walterboro     DRIZZLE   61  61 100 E15       30.13F
Allendale      LGT RAIN  63  61  94 SE12      30.08S

...Southern Midlands and Pee Dee...

CITY           SKY/WX    TMP DP  RH WIND       PRES   REMARKS
Georgetown     PTSUNNY   64  63  94 E14G25    30.19S
Kingstree      DRIZZLE   59  59 100 E6        30.19R
Orangeburg     LGT RAIN  61  59  93 E9        30.13S
Barnwell       LGT RAIN  61  59  94 E16G28    30.09S
Aiken          RAIN      55  55 100 E13G23    30.13R
Manning        RAIN      55  54  94 CALM      30.17R
Columbia       LGT RAIN  59  58  96 E13       30.13F
Sumter         LGT RAIN  58  55  89 E10       30.15F
Florence       LGT RAIN  61  53  75 E8        30.22R
Myrtle Beach   CLOUDY    64  58  80 E15G22    30.22R
N Myrtle Beach PTSUNNY   64  57  78 E17G26    30.22S

$$

GAZ063-065-086>088-099>101-113>116-118-119-134>141-150-231400-
...Southeast Georgia...

CITY           SKY/WX    TMP DP  RH WIND       PRES   REMARKS
Savannah Arpt  RAIN      65  64  97 SE14G26   30.05S FOG
Hunter AAF     LGT RAIN  66  64  91 E21G29    30.00  FOG
Fort Stewart   PTSUNNY   67  67 100 E3        30.02F
Statesboro     CLOUDY    64  32  29 E7        30.05F
Sylvania       LGT RAIN  63  63 100 SW9       30.09S
Claxton        PTSUNNY   67  65  93 E10G16    30.04F

...CSRA, Central and far Southeast Georgia...

CITY           SKY/WX    TMP DP  RH WIND       PRES   REMARKS
Thomson        LGT RAIN  60  59  96 S8        30.11S FOG
Augusta-Bush   RAIN      62  60  93 SE8       30.07S FOG
Augusta-Daniel RAIN      62  60  93 E9G18     30.09S FOG
Swainsboro     CLOUDY    64  63  94 SE13      30.03F
Vidalia        CLOUDY    66  64  94 E8        30.02F
Eastman        CLOUDY    67  59  75 SE5       30.03S
Hazlehurst     DRIZZLE   68  65  89 CALM      30.00S
Alma           CLOUDY    69  67  93 CALM      30.01S
Waycross       PTSUNNY   70  67  90 SE3       30.02S
Jesup          NOT AVBL
Baxley         CLOUDY    64  64 100 SE3       30.02R
Brunswick      LGT RAIN  68  64  88 S6        30.04S
Saint Simons   LGT RAIN  69  68  96 S6        30.03F FOG

$$

SCZ027-028-034-036>038-045-046-048>050-GAZ119-141-231400-
...Lake and Supplemental Coastal Observations...

STATION/POSITION TIME  TEMP    WIND        PRES    WAVE   SWELL
                       AIR SEA DIR/SP/G            HT/PER HT/PER/DIR
                 (UTC) (F)     (DEG/KT/KT) (MB)    (FT/S) (FT/S/D)
Winyah Bay       1245   65      90/ 13     1022.0S
Lake Murray      1220   57      80/ 11/ 17 1020.3R
ACE Basin NERRS  1245   64     350/  5       N/A
Fort Pulaski     1300   66 65  110/ 22/ 31 1017.4
Sapelo Island    1300   68     140/ 12     1017.0

$$

ANZ835-935-AMZ111-154-330-350-352-354-370-450-454-472-231400-
...C-MAN and Buoy Observations...

STATION/POSITION TIME  TEMP    WIND        PRES    WAVE   SWELL
                       AIR SEA DIR/SP/G            HT/PER HT/PER/DIR
                 (UTC) (F)     (DEG/KT/KT) (MB)    (FT/S) (FT/S/D)
Buoy 41004       1310   69 66  120/ 21/ 27 1020.8
Buoy 41008       1250   68 65  120/ 17/ 23 1016.4R   8/ 8
Folly Beach CMAN 1300   65     110/ 19/ 22 1021.7
Capers Nearshore 1308   66 63  120/ 16/ 23 1019.8F
Fripp Nearshore  1308   65 64  100/ 16/ 23 1018.3F


STATION/POSITION TIME  TEMP    WIND        PRES    WAVE   SWELL
                       AIR SEA DIR/SP/G            HT/PER HT/PER/DIR
                 (UTC) (F)     (DEG/KT/KT) (MB)    (FT/S) (FT/S/D)
5E St. Marys GA  1300      66                N/A     6/ 8   2/100/11
Frying Pan Buoy  1310   68 70  110/ 23/ 29 1023.6
Buoy 41025       1310   66 71  100/ 19/ 23 1028.3
Cape Lookout NC  1300          100/ 16/ 17 1027.1
Buoy 41002       1310   68 72  110/ 17/ 21 1025.3
Buoy 41010       1310   74 75  110/ 23/ 29 1019.5
St Augustine FL  1300   69 69  160/  9/ 10 1017.0R


$$




USA.gov is the U.S. government's official web portal to all federal, state and local government web resources and services.